Theta_e
366 367 364 364 364 364 364 363 362 362 364 362 361 363 363 366 368 368 368 370 369 369 369 370 370 369 366 368 369 368 370 369 371 370 369 367 365 363 359 361 361 360
365 367 366 365 365 367 367 366 365 364 364 365 364 364 366 368 367 368 370 371 371 369 372 369 369 370 369 368 368 366 369 370 367 366 368 368 368 364 361 360 358 361
365 366 364 364 361 362 361 365 367 365 364 364 366 368 366 365 368 369 371 371 369 367 370 370 370 370 367 369 369 366 366 368 366 366 369 369 366 365 364 360 360 361
365 365 362 361 362 362 363 365 366 367 367 365 365 365 365 363 368 368 370 369 370 369 369 369 369 368 369 369 369 367 369 370 368 372 370 370 369 366 364 365 361 360
362 363 363 363 362 365 365 364 363 363 365 365 365 368 367 369 369 369 369 368 370 369 369 370 369 369 371 370 370 368 367 367 369 371 369 368 370 367 364 364 365 360
362 364 365 363 364 365 362 362 363 363 364 362 365 366 366 365 367 367 367 366 364 363 364 365 367 366 367 370 371 369 367 364 364 370 369 369 367 367 364 366 367 365
358 361 361 362 362 363 363 363 363 365 363 364 367 365 366 364 366 368 368 366 364 365 363 366 367 366 366 370 371 371 368 368 368 370 368 365 368 368 366 367 369 367
356 356 358 360 359 361 360 361 362 363 365 365 364 366 367 364 366 366 367 366 365 365 367 366 368 367 365 366 368 368 368 365 367 367 367 366 366 368 368 365 365 365
356 355 356 357 356 357 355 357 360 362 364 364 361 362 366 366 365 365 368 369 367 367 369 369 369 366 364 367 368 368 369 367 364 367 368 367 366 367 365 367 364 363
356 355 353 353 353 353 354 354 355 357 360 361 360 360 361 365 366 366 368 371 369 370 372 370 370 367 367 367 368 369 369 369 369 369 368 367 367 366 365 366 364 363
354 354 353 352 351 351 352 352 352 353 357 357 357 358 361 363 365 368 369 371 365 368 369 371 370 370 369 367 367 368 368 366 367 369 369 369 368 368 366 366 364 363
356 355 352 352 351 350 350 350 351 351 353 355 355 356 360 359 364 363 364 366 367 367 368 370 370 371 372 371 368 368 367 367 368 368 366 368 367 367 367 367 365 366
358 357 355 353 353 352 352 353 352 352 352 352 353 353 355 354 356 360 363 364 365 364 364 366 369 368 369 371 369 368 368 369 366 366 367 365 365 363 363 361 360 360
363 361 362 360 359 358 356 355 355 354 354 354 354 354 353 353 352 352 357 360 361 362 363 365 366 367 370 371 371 368 366 367 367 365 362 363 362 363 361 360 359 358
367 366 364 363 364 364 361 358 356 358 358 359 359 358 353 352 352 351 353 354 357 358 360 360 359 361 362 366 368 368 366 363 363 363 363 362 360 358 359 361 360 358
365 364 363 363 363 362 364 364 360 359 357 358 358 359 358 359 358 355 354 353 355 358 360 357 356 357 364 367 367 365 366 363 363 365 366 364 363 362 358 358 357 357
364 362 362 361 362 363 364 363 362 362 360 361 360 360 361 363 362 359 356 354 353 355 356 354 351 353 364 348 349 354 362 362 362 364 366 366 364 364 362 359 358 358
361 361 361 361 362 362 363 364 364 365 365 365 364 361 364 362 360 359 360 358 355 355 354 352 351 362 342 343 345 344 355 362 360 359 359 360 361 359 359 359 357 356
359 360 361 360 360 360 361 362 363 363 363 362 363 364 364 364 364 360 361 361 359 358 355 354 351 335 336 338 340 338 339 356 359 359 357 356 357 358 360 361 363 362
356 357 357 357 360 360 360 360 359 360 361 362 363 364 363 363 363 364 364 365 363 361 361 359 360 335 330 331 332 333 335 344 360 358 358 357 358 359 358 360 363 365
349 350 352 352 352 354 355 355 356 357 357 358 359 359 360 360 361 361 363 364 364 363 362 359 345 326 326 328 327 327 329 339 359 357 356 357 358 359 363 364 366 364
344 344 344 345 348 348 350 350 351 352 354 357 358 358 358 358 359 360 360 360 360 359 358 353 344 319 321 321 323 326 328 351 359 362 360 359 359 360 363 366 367 366
339 340 341 342 344 346 345 345 345 348 352 355 355 355 354 357 356 352 353 353 355 357 351 350 342 325 317 317 318 320 335 360 363 361 361 361 361 362 364 365 365 367
338 340 342 343 344 344 345 348 349 350 349 350 349 349 350 349 350 351 351 352 350 349 350 344 340 327 315 315 316 316 333 358 362 362 362 363 362 364 365 366 366 362
339 341 341 341 341 342 344 344 345 345 345 345 346 348 347 348 345 347 348 350 350 349 349 344 342 335 316 314 314 315 334 357 361 360 357 360 361 361 363 363 360 356
341 340 341 341 340 340 343 343 345 344 343 344 345 346 345 344 342 342 341 342 344 345 345 345 343 340 327 312 312 314 319 351 358 356 355 355 357 358 358 359 358 356
Wind_Speed
6 5 5 4 4 3 3 4 4 5 4 4 5 5 4 4 4 5 5 4 4 4 4 4 4 3 3 3 3 2 1 2 2 1 3 3 3 3 4 2 3 3
8 6 4 4 3 3 3 3 4 4 4 4 3 3 3 4 5 5 5 5 5 5 4 4 4 4 4 4 4 3 3 3 4 3 3 3 4 4 4 4 4 3
8 8 7 6 6 6 6 5 4 4 4 4 4 3 4 5 5 5 4 5 4 4 5 4 4 4 4 3 3 4 4 3 3 4 2 3 4 3 4 4 3 2
9 9 8 7 6 6 6 5 6 4 4 4 4 4 4 3 4 5 4 4 4 3 4 4 4 4 4 4 4 4 3 3 3 2 2 3 4 4 4 3 3 4
10 9 8 8 7 6 6 6 6 6 5 4 5 4 4 3 4 5 5 5 4 4 4 4 4 4 4 4 4 4 3 4 4 4 4 4 4 4 4 3 2 4
10 9 9 8 7 7 7 7 7 6 6 6 5 5 6 6 5 5 5 6 6 6 5 5 5 5 5 5 4 4 3 4 2 3 4 4 4 4 3 2 3 3
10 10 11 9 9 8 8 7 7 6 6 5 5 5 5 6 6 5 5 5 5 4 5 4 4 4 4 4 4 4 4 4 4 3 4 4 4 4 5 4 4 4
10 10 10 9 10 9 9 8 7 7 6 5 6 6 6 6 6 6 6 5 6 5 4 5 5 5 5 5 5 5 5 5 6 5 5 5 4 5 5 4 4 5
9 10 10 11 11 10 10 9 9 8 7 7 7 7 7 6 6 6 5 5 5 5 5 5 6 6 6 6 5 5 5 5 4 4 5 5 5 5 5 5 5 5
10 10 11 11 11 10 11 10 9 9 8 8 7 7 8 7 6 6 6 6 6 5 5 5 6 6 6 6 7 6 6 6 6 5 5 5 5 5 5 5 5 5
11 10 10 11 11 10 11 10 9 9 8 9 8 7 7 8 7 6 6 7 7 7 6 6 6 6 6 7 6 6 6 6 6 5 6 5 5 5 5 5 5 6
10 10 10 11 11 10 10 10 10 9 9 9 9 8 7 7 8 8 7 8 7 6 6 6 6 6 6 6 7 7 6 6 6 6 6 6 6 6 6 5 6 6
9 9 9 10 10 9 9 9 9 9 9 9 9 9 9 9 8 8 6 7 7 7 7 7 6 6 6 6 7 7 6 6 6 6 6 6 6 6 6 6 7 7
9 8 8 7 7 8 8 8 8 8 8 8 8 9 9 9 9 9 8 7 7 7 7 7 7 7 7 7 7 7 7 7 7 7 7 7 6 6 6 6 6 6
7 7 7 6 6 5 7 8 8 8 7 7 7 8 8 9 9 8 8 9 8 8 7 7 7 8 7 7 7 7 7 7 7 7 7 7 6 7 7 7 7 7
6 6 6 7 7 8 8 8 8 8 9 9 8 8 7 6 6 7 8 8 8 8 8 8 8 7 5 4 2 5 5 5 5 5 5 6 6 7 7 8 8 8
6 6 6 7 7 7 7 8 8 7 7 7 7 7 7 6 7 7 8 8 8 9 9 9 8 7 12 11 9 6 6 6 6 6 7 7 7 7 8 8 8 8
5 6 7 7 7 7 7 6 7 7 6 6 6 7 7 8 8 8 7 8 7 8 8 7 8 8 13 9 9 8 7 6 6 7 7 8 8 8 7 8 8 8
4 6 7 7 6 6 6 6 7 7 7 7 7 6 6 8 8 8 8 7 7 7 7 7 2 11 7 3 4 7 8 8 6 7 8 8 8 8 8 7 7 7
1 3 4 4 4 4 4 7 7 7 6 6 6 6 5 6 8 8 7 6 6 6 5 6 7 8 8 8 5 5 7 8 7 7 8 8 8 8 8 7 6 7
4 4 5 6 6 4 5 3 2 3 4 3 4 5 6 6 7 8 6 5 5 5 6 2 8 9 8 6 5 5 4 8 6 7 7 7 7 7 7 7 7 7
6 5 6 5 5 4 4 5 3 2 2 1 2 3 2 3 4 5 4 4 5 2 2 8 7 13 10 8 6 5 4 6 8 7 7 7 7 6 6 6 6 7
7 6 4 6 6 5 4 1 2 1 3 1 1 2 2 3 4 7 7 7 7 4 6 6 8 10 11 11 10 10 7 6 7 7 7 7 6 5 5 5 6 5
5 4 4 5 5 6 4 3 2 2 6 7 7 6 5 6 7 6 7 7 8 7 6 6 8 10 12 12 11 10 9 7 6 6 6 6 6 5 4 3 2 8
4 4 7 8 7 7 7 7 6 5 5 6 7 7 7 5 6 7 7 7 7 7 10 9 8 9 12 12 11 11 8 5 4 3 6 6 4 3 3 2 6 11
4 5 6 7 8 7 7 6 5 5 5 5 7 7 6 4 6 8 8 7 6 6 7 7 8 7 9 12 12 13 13 6 2 4 3 4 4 3 4 2 4 4
Wind_Direction
187 188 191 197 199 202 187 184 192 183 200 193 186 182 181 180 181 182 181 178 187 196 186 190 184 190 184 179 181 202 241 226 297 188 232 266 271 265 272 277 271 268
188 191 195 200 190 198 200 199 186 199 187 207 206 168 178 173 182 188 186 188 184 192 188 188 189 193 201 186 184 204 204 208 232 227 227 245 259 262 251 252 269 288
193 190 194 204 197 192 197 181 185 196 192 197 179 201 181 182 184 187 191 200 198 189 184 195 189 199 204 198 196 208 203 212 236 256 245 259 280 278 275 279 268 231
198 200 198 204 204 186 196 185 183 199 195 182 205 187 207 168 179 180 185 199 204 201 197 194 198 198 197 199 207 227 211 221 236 266 253 257 258 280 288 274 276 287
200 202 205 204 199 189 192 195 198 182 198 185 190 185 186 188 191 184 184 183 201 199 193 200 192 203 194 200 207 229 224 229 212 220 241 245 250 240 257 267 284 278
203 204 206 207 195 189 195 193 205 188 200 180 199 175 182 182 196 195 186 194 187 202 193 195 191 198 200 188 209 225 238 247 192 195 238 255 272 281 273 270 267 265
202 202 204 202 201 191 202 196 196 203 194 201 174 194 178 182 190 192 195 202 211 193 198 180 194 197 201 191 200 205 227 251 273 250 249 257 246 258 267 262 256 268
205 201 204 206 208 194 205 193 199 194 196 198 189 187 191 190 190 191 196 196 203 191 195 192 185 199 212 202 206 211 229 222 216 221 238 249 265 261 253 258 255 256
205 202 203 207 209 205 204 199 194 197 191 199 208 184 190 201 185 199 177 193 209 188 197 201 196 199 206 209 210 215 226 250 256 232 230 244 240 236 244 245 245 247
200 207 205 206 209 209 206 208 199 194 190 203 208 203 184 192 197 192 177 188 201 194 198 217 202 213 212 206 213 223 231 227 232 240 249 248 252 260 256 245 249 252
201 203 207 210 213 212 209 211 208 202 190 203 205 210 197 184 186 194 186 189 201 196 202 210 215 217 221 227 223 223 223 228 227 225 227 236 246 255 262 265 265 264
202 206 206 206 211 215 214 212 210 209 200 197 208 206 203 202 189 198 189 194 204 202 203 206 215 224 223 235 235 227 222 231 225 225 228 233 241 238 242 244 253 253
208 209 209 206 204 215 211 210 215 213 211 204 202 208 204 210 200 205 197 199 198 207 209 204 210 221 226 230 242 246 242 238 242 238 233 237 234 241 245 247 244 243
210 213 213 214 209 205 216 211 211 213 212 215 209 206 214 214 215 200 200 206 210 212 214 213 210 217 217 226 235 242 240 234 236 246 249 242 242 240 246 250 251 253
196 204 213 210 216 213 219 217 211 210 209 215 211 219 215 216 221 225 213 212 208 212 215 219 218 212 215 214 216 227 241 245 245 245 246 249 251 250 237 236 243 249
189 197 201 205 206 208 214 220 225 216 210 208 211 215 224 231 229 226 227 218 215 208 216 218 220 225 185 160 267 266 254 258 255 255 258 261 261 260 258 249 246 252
183 193 203 211 207 210 212 214 222 226 220 214 214 215 218 207 223 226 235 235 227 223 217 224 221 221 150 171 181 215 246 240 246 249 244 245 244 238 249 258 262 257
188 187 201 208 210 215 215 217 220 223 223 213 221 215 213 214 210 219 226 237 236 237 236 234 242 112 144 158 180 192 219 245 243 242 242 240 240 247 248 251 254 256
232 210 200 200 205 211 218 219 222 221 218 219 220 225 214 219 221 218 213 219 234 236 242 246 159 34 59 104 186 203 207 231 242 248 252 251 252 252 256 260 262 262
186 229 201 183 184 201 219 219 218 217 223 217 218 216 224 228 230 220 220 224 230 232 236 248 69 41 42 27 348 265 226 219 243 246 245 252 259 262 264 260 252 256
84 82 86 68 55 63 79 62 89 170 188 190 206 210 212 220 235 226 215 221 221 224 235 77 57 30 49 38 15 316 290 243 253 252 249 249 249 249 251 260 269 267
62 89 66 66 92 79 62 54 49 97 105 138 218 220 226 224 224 234 216 210 224 253 245 76 52 22 15 20 0 336 259 241 243 239 249 252 250 254 264 270 272 275
15 20 64 80 70 72 76 46 334 308 131 186 202 28 356 346 23 18 9 347 330 318 41 45 57 22 16 12 359 344 286 250 256 258 256 252 254 257 264 265 276 308
26 31 76 93 101 110 133 173 182 43 38 45 55 56 52 48 54 43 37 47 60 54 88 88 57 32 14 10 357 348 323 287 266 265 266 262 258 254 257 282 319 37
1 31 69 71 68 68 71 69 51 52 58 65 76 63 52 47 73 79 62 46 42 63 68 71 56 40 19 6 0 357 343 301 306 289 267 269 280 269 262 279 56 56
42 33 42 62 67 65 62 63 61 59 52 61 68 77 84 71 73 81 83 67 43 43 56 66 68 47 20 4 9 9 360 340 15 318 324 327 315 323 301 11 55 85